User: anonymous
Location: Stigler
(35.2540°N, 95.1230°W)
Time: 20:38:33
(UTC-05:00)
Language:

Cosmos 1805 - Orbit

View from above orbital plane
View from above orbital plane
View from above satellite
View from above satellite

Ground track
Ground track

The orbit data is extracted from the following two-line orbital elements,

1 17191U 86097A   14259.75619272  .00002278  00000-0  14721-3 0  9851
2 17191 082.4965 296.2569 0006326 246.1247 113.9319 15.07770949512023
Epoch (UTC): 16 September 2014 18:08:55
Eccentricity: 0.0006326
inclination: 82.4965°
perigee height: 538 km
apogee height: 547 km
right ascension of ascending node: 296.2569°
argument of perigee: 246.1247°
revolutions per day: 15.07770949
mean anomaly at epoch: 113.9319°
orbit number at epoch: 51202

The dashed part of the orbit path shows where the satellite is in the earth's shadow,  

DLR